Wind_Speed
23 23 23 23 23 22 22 21 21 21 21 21 22 21 22 22 23 22 21 20 19 20 21 21 21 21 21 22 22 21 21 21 20 19 15 14 15 13 13 13 14 15 12 11 10 10 11 12 13 14 14 14 13 12 12 16 16 11 12 14 16 18 12 3 6 6 1 2 2 1 5 7 2 2 3 5 7 2 8 13 16 16 15 16 16 16 16 14
22 22 22 22 22 21 21 20 20 20 20 20 20 20 20 20 21 21 20 19 19 19 20 20 20 20 20 21 22 21 21 21 21 17 13 14 15 13 13 13 14 15 14 11 10 11 11 12 13 14 15 14 13 12 11 13 15 16 16 18 20 18 10 1 8 6 6 2 5 3 1 5 1 1 4 4 2 3 10 17 16 13 13 16 17 17 17 15
22 22 22 22 22 21 20 20 19 19 19 19 19 19 19 19 20 20 20 19 19 19 19 19 19 18 19 20 20 20 20 21 21 16 13 15 15 14 14 14 14 16 15 12 12 13 13 13 14 14 15 15 14 12 10 10 12 15 18 22 20 15 8 6 8 9 13 8 5 4 5 7 3 3 3 1 4 2 10 15 13 12 14 17 15 14 16 16
22 22 22 22 21 21 20 20 19 19 18 18 18 18 18 18 19 19 19 19 19 19 19 18 18 18 18 19 19 18 18 19 19 15 15 17 15 15 15 14 15 16 16 14 14 15 15 16 14 13 15 14 13 11 9 9 10 13 17 20 17 13 13 9 9 10 12 11 7 6 3 5 3 7 6 3 4 3 12 16 12 12 14 17 15 13 15 17
21 21 21 21 21 21 21 20 19 18 18 18 18 18 17 17 18 19 19 19 18 18 18 17 17 17 17 18 17 16 17 16 15 14 15 15 15 15 16 16 16 17 19 16 13 14 16 18 14 11 14 14 12 10 11 11 11 14 16 16 12 13 14 10 10 10 12 13 11 7 5 3 3 7 4 2 2 7 14 16 15 11 7 10 10 10 13 16
20 20 20 21 21 21 21 20 19 18 17 17 17 17 17 17 17 18 19 18 18 18 17 17 16 17 17 17 17 16 16 14 12 14 15 13 14 15 16 16 17 18 20 17 13 13 15 18 16 11 14 16 15 12 11 13 13 16 18 16 13 13 14 15 12 12 15 18 17 12 9 7 7 8 3 1 6 11 15 15 16 12 7 7 6 8 12 16
20 20 20 20 20 21 21 20 19 18 17 17 17 17 16 16 17 18 19 18 18 18 17 17 16 16 16 17 17 17 17 14 11 12 13 13 13 14 16 16 17 19 19 17 14 13 15 18 19 14 14 16 16 15 13 13 14 16 18 17 15 14 13 14 11 10 13 16 19 17 12 8 10 11 3 2 8 12 15 14 14 13 10 9 9 11 12 16
20 20 20 20 20 20 20 20 19 18 17 16 17 17 16 16 17 18 19 19 18 18 17 16 16 16 16 16 17 18 17 16 15 12 10 12 13 14 15 16 17 18 18 17 14 14 15 17 19 17 16 16 14 13 11 12 16 16 17 17 17 18 16 13 12 12 12 16 19 18 14 9 9 10 6 5 9 13 16 14 14 14 12 12 13 14 15 17
19 19 19 19 19 19 19 19 18 17 16 16 16 16 16 16 17 18 19 18 18 18 17 16 15 15 15 16 17 17 16 17 18 15 11 11 12 13 15 16 17 18 18 18 15 15 17 17 18 17 16 15 10 10 11 13 19 17 15 16 15 16 15 13 13 13 15 17 16 13 12 9 6 8 7 9 10 16 19 16 15 15 14 14 14 16 18 18
18 18 18 19 19 19 18 18 17 16 15 15 15 16 16 16 16 18 18 18 18 17 17 15 15 15 15 16 16 15 16 17 18 17 14 12 12 12 14 16 18 19 19 19 16 15 16 15 15 14 12 12 13 17 15 13 17 15 12 14 14 15 15 15 15 14 15 15 13 10 10 9 7 10 8 8 15 21 21 20 18 16 14 15 16 19 20 21
18 18 18 18 19 18 18 17 16 15 14 14 15 16 16 16 16 17 18 18 18 17 16 14 14 15 15 16 15 14 14 14 16 17 15 15 14 11 12 14 17 19 19 19 17 15 16 14 12 10 9 13 14 15 13 12 16 15 11 13 14 16 18 18 19 18 14 13 13 12 12 12 10 12 10 9 17 22 21 22 20 18 16 16 18 18 18 22
17 17 17 17 18 18 17 16 15 14 14 14 14 16 16 16 16 17 18 18 17 17 16 14 14 15 15 15 13 12 11 12 14 15 14 15 15 13 12 13 15 18 18 19 18 15 16 14 9 11 12 12 11 11 10 12 16 16 13 12 13 16 20 21 21 20 17 17 16 12 12 13 12 14 13 13 19 21 19 20 19 18 19 20 19 15 16 23
16 16 16 16 17 17 17 15 14 14 14 14 14 15 15 15 16 16 17 17 17 16 15 14 14 15 15 14 11 12 14 11 12 12 12 13 13 14 14 14 16 17 18 21 17 12 15 14 11 17 20 16 13 12 10 10 13 13 13 14 13 16 20 19 19 17 16 17 14 11 13 14 13 12 11 13 19 24 21 21 22 19 19 20 18 15 17 23
15 15 15 15 16 16 15 14 14 13 14 14 14 15 15 15 16 16 16 16 16 16 15 14 14 14 14 12 12 15 17 14 14 11 10 11 13 14 15 16 18 18 21 23 16 11 18 20 19 23 25 20 17 14 11 10 11 11 12 13 15 18 15 9 15 17 17 16 9 11 16 17 14 12 11 11 15 23 23 22 23 20 19 20 18 17 20 23
14 14 15 15 15 15 14 14 13 13 14 14 14 14 14 14 15 15 15 15 15 15 14 14 13 14 14 12 14 16 15 15 16 12 8 10 12 13 15 16 18 19 22 24 20 18 22 24 24 26 25 20 17 13 10 10 10 10 12 12 14 20 12 4 10 18 19 18 11 13 16 17 16 11 12 13 14 21 24 25 24 19 20 20 20 20 21 23
13 13 14 14 14 14 13 13 13 13 13 13 13 13 13 14 14 14 14 14 14 14 13 13 12 13 13 12 16 16 13 14 14 11 9 10 11 13 14 16 18 20 22 24 23 22 23 25 25 23 23 21 17 12 10 11 10 11 13 13 15 20 19 16 14 19 19 15 16 18 13 17 18 10 10 14 16 22 25 27 24 18 18 19 20 19 19 20
13 13 14 14 14 13 13 13 13 13 13 13 12 12 12 13 13 13 13 13 14 13 13 12 11 12 11 12 14 14 11 12 13 12 10 10 11 13 14 15 18 19 20 22 23 21 20 23 23 22 23 22 17 11 13 14 14 15 15 14 14 16 21 20 10 20 20 12 16 17 11 17 14 7 8 12 19 29 28 26 23 19 20 19 18 18 17 15
14 13 14 15 14 14 13 14 13 13 13 12 12 11 12 12 13 13 13 14 14 14 13 13 12 8 7 10 10 8 9 11 12 12 11 11 12 14 13 13 15 16 17 19 20 19 17 17 20 21 21 22 19 15 18 18 15 17 18 18 14 12 15 16 12 22 19 13 14 10 10 16 13 9 11 14 14 29 28 22 20 19 19 17 16 19 19 16
14 13 14 15 15 14 13 14 13 13 12 11 11 11 11 11 12 12 13 15 15 14 12 11 13 8 4 3 3 4 7 9 10 12 12 11 14 15 12 11 12 14 14 15 17 17 15 14 16 20 22 24 22 20 20 18 16 16 19 18 14 12 12 14 16 19 16 17 16 10 7 9 13 15 14 12 6 22 25 21 17 17 18 19 21 23 23 20
14 14 15 15 15 13 13 13 13 13 11 11 11 10 11 12 12 12 14 15 15 14 12 10 12 13 7 7 3 4 7 8 9 12 13 12 15 17 15 12 11 14 15 14 12 12 13 15 17 21 23 22 20 19 18 18 19 18 18 16 16 18 13 10 13 16 17 18 14 11 7 7 13 16 14 9 6 14 21 24 21 22 23 25 25 22 22 20
14 14 15 15 14 13 12 12 12 12 11 11 11 11 13 14 14 13 15 17 16 17 16 14 13 14 12 10 7 6 9 10 8 10 14 14 17 20 20 18 14 16 18 14 10 8 12 18 20 21 21 19 16 16 16 18 21 21 20 18 18 18 14 8 12 15 17 16 11 11 11 11 13 15 16 13 11 14 19 23 23 24 25 25 23 18 16 16
14 14 15 15 14 12 12 12 12 12 12 12 11 12 15 15 15 14 16 17 17 18 17 18 18 14 15 15 13 11 14 11 10 11 15 17 20 22 22 21 18 17 17 16 14 13 15 20 20 18 16 15 16 16 17 18 19 20 20 18 16 15 12 7 10 13 14 12 12 14 12 10 10 14 19 16 14 16 19 22 21 22 24 25 23 15 12 13
13 14 14 14 13 12 12 12 12 12 12 12 12 13 15 15 14 14 16 17 16 17 17 20 21 17 18 17 14 16 16 11 13 14 15 17 20 21 20 21 19 17 15 16 20 20 19 18 16 16 15 13 16 16 18 20 19 18 18 16 16 15 11 8 3 6 10 10 10 11 9 10 12 14 20 20 16 16 19 23 20 17 20 23 21 14 13 16
12 13 13 13 13 12 12 12 12 12 12 12 12 13 15 14 13 13 14 17 18 18 18 20 20 20 22 19 11 17 16 11 14 16 16 16 16 19 20 18 18 19 17 16 19 22 23 16 9 11 15 15 17 17 18 21 21 17 13 13 14 14 13 11 8 7 9 8 7 10 12 13 15 13 15 18 17 14 16 21 22 18 18 22 20 15 15 17
12 12 12 12 12 11 12 11 11 11 10 11 12 13 13 11 11 12 11 14 17 15 16 19 21 20 23 22 14 17 18 15 15 16 18 14 12 18 22 17 17 19 19 18 17 19 23 19 12 11 14 17 18 19 20 20 19 16 9 7 12 16 13 13 13 14 16 10 8 14 11 8 12 12 11 11 13 14 14 18 22 22 23 23 21 18 17 18
11 11 12 12 12 11 12 11 11 11 11 12 13 12 11 10 10 10 9 10 14 12 12 17 19 16 21 27 20 16 18 18 18 17 21 18 11 15 21 18 18 19 17 18 18 19 21 20 19 18 16 18 20 20 21 20 19 18 13 8 9 14 15 15 17 17 17 12 10 12 9 7 12 12 13 12 13 16 16 19 22 23 25 26 25 21 17 18
10 11 12 12 11 11 11 12 12 13 14 14 14 13 11 9 8 6 5 5 9 9 12 14 15 12 17 24 22 19 16 15 18 19 20 20 15 15 21 19 17 19 17 16 19 21 20 18 18 20 20 20 23 23 19 16 15 16 17 16 12 12 13 13 15 16 17 19 17 14 11 11 14 15 14 13 15 15 13 16 20 21 19 18 20 19 16 17
10 11 12 11 12 12 12 13 13 14 14 11 9 10 10 8 7 6 3 2 2 9 12 14 15 11 14 20 22 23 14 5 15 24 20 20 17 18 24 21 16 17 17 16 19 21 20 18 17 18 18 15 16 19 16 11 12 13 13 16 18 16 14 12 15 18 17 19 18 12 9 9 13 18 16 12 15 13 7 3 6 13 14 10 9 9 10 13
10 11 12 11 12 12 12 13 14 14 13 8 4 7 10 9 9 8 2 1 8 12 10 13 16 13 15 20 23 26 17 6 11 21 23 20 18 20 24 23 20 18 16 16 21 22 19 15 14 16 18 17 14 14 14 12 14 15 12 13 16 17 16 12 11 15 12 10 9 7 9 8 10 18 17 12 13 9 3 1 3 6 11 12 10 7 7 11
10 11 11 11 12 11 12 13 14 14 13 10 8 9 10 10 11 8 1 3 10 11 11 14 16 17 19 21 22 24 22 15 9 14 25 26 19 21 22 21 21 21 17 16 20 24 20 12 13 17 16 17 17 13 14 16 15 15 13 13 15 16 17 14 10 9 7 5 7 9 11 11 8 8 6 3 3 3 3 5 3 2 5 8 11 12 10 9
10 11 11 11 11 11 13 14 15 13 12 12 11 11 12 12 11 5 1 6 9 8 13 16 14 17 21 21 21 21 22 20 11 11 26 30 22 22 23 20 21 20 18 18 18 21 21 14 15 19 14 13 17 14 14 16 17 17 15 13 12 11 11 10 8 7 4 4 11 13 13 15 9 3 7 5 3 4 8 10 9 9 7 5 9 13 10 6
9 10 10 11 11 10 12 13 12 11 9 11 11 12 14 12 8 8 5 4 7 8 11 14 15 18 20 19 18 18 20 19 13 13 23 29 25 24 25 23 21 19 17 19 18 18 23 20 14 15 15 14 16 16 16 16 16 17 18 15 9 3 2 3 3 3 4 8 16 18 15 13 7 5 5 2 2 3 9 11 11 11 10 6 6 10 7 3
8 9 10 11 10 10 12 12 12 12 12 13 13 15 15 7 6 16 12 3 5 8 9 13 17 17 19 19 18 17 18 16 14 15 21 26 24 22 24 23 21 18 15 15 17 17 19 21 18 16 16 15 15 16 17 17 14 13 16 16 10 3 1 2 3 2 5 12 18 18 13 6 8 7 2 2 1 3 8 11 11 10 11 9 9 10 9 7
8 9 10 9 9 10 11 11 12 14 15 16 17 17 13 5 6 16 15 5 2 4 8 16 19 16 19 20 19 20 18 17 17 17 19 24 25 20 21 22 21 19 17 14 16 17 13 14 20 20 19 20 20 19 18 17 15 16 17 16 14 11 6 2 3 4 3 5 6 7 6 2 6 6 2 1 2 4 7 9 10 11 12 12 11 11 10 9
9 9 9 8 10 11 11 13 13 15 17 18 20 19 14 12 10 12 12 8 7 6 7 15 16 16 20 19 19 21 18 16 20 21 20 23 24 22 21 23 23 22 21 17 15 16 15 15 19 19 18 22 22 17 17 18 17 18 21 20 16 16 15 11 9 7 2 2 1 0 1 1 5 7 2 3 3 4 7 8 10 11 13 13 12 11 10 8
9 9 8 9 11 11 12 15 15 16 18 19 21 22 21 17 10 5 5 8 6 4 5 12 12 9 13 14 15 18 16 16 21 24 23 22 22 21 21 22 23 24 25 22 17 14 13 13 14 15 14 17 16 9 11 20 18 14 21 26 20 15 17 17 14 13 7 1 1 3 4 5 5 5 2 3 3 5 5 6 8 9 10 12 12 12 10 7
9 9 9 9 12 13 14 15 16 17 19 20 23 23 21 17 7 2 9 9 5 1 2 9 12 7 10 11 13 15 16 17 20 22 21 20 20 21 21 21 21 24 27 25 20 14 11 10 11 16 15 14 17 12 10 17 20 16 16 20 19 16 18 17 8 5 4 1 2 6 9 9 5 3 1 2 2 4 5 5 6 6 6 7 7 6 3 2
8 9 9 9 12 15 14 15 17 18 19 22 24 21 17 15 5 4 8 8 7 4 2 6 6 7 11 12 13 15 18 17 19 20 18 16 16 19 21 23 20 20 23 25 23 15 11 10 9 15 17 12 16 17 13 14 18 21 18 14 12 11 14 19 10 1 2 2 1 5 11 8 4 3 1 3 3 4 5 6 5 2 1 2 3 3 4 4
9 10 10 10 12 14 14 16 17 18 21 24 24 18 13 8 1 5 6 5 5 4 3 3 3 7 8 9 10 12 19 20 18 18 16 12 12 14 17 21 21 19 20 22 24 18 13 10 6 10 15 11 14 18 18 18 17 18 19 17 14 9 9 13 11 6 4 3 2 3 7 4 4 3 3 3 2 2 4 5 6 2 2 1 1 3 4 4
11 11 10 12 13 13 14 16 18 20 21 22 21 16 9 4 3 5 10 7 6 4 5 5 5 7 6 5 4 2 12 18 17 17 15 9 8 10 11 12 12 15 20 23 25 21 16 12 7 9 14 14 15 19 19 20 19 18 19 20 17 14 11 7 7 8 5 3 3 2 3 3 2 2 3 3 4 4 3 3 6 5 1 2 1 3 5 5
13 11 11 12 11 12 15 17 19 20 19 19 18 12 4 7 4 1 7 9 10 10 9 9 5 7 8 8 5 3 1 7 11 14 13 7 5 6 8 7 4 5 15 22 26 26 21 17 13 13 15 14 10 14 15 17 17 17 17 19 19 17 14 7 4 7 6 3 3 4 4 2 3 3 2 2 5 6 4 5 6 8 4 0 2 3 3 5
13 10 11 12 11 12 14 16 18 18 18 17 12 3 4 7 4 3 6 6 6 10 10 8 6 7 8 8 6 4 4 2 5 4 9 9 7 8 7 7 6 3 7 10 16 22 21 19 18 17 17 15 10 10 12 12 16 17 16 19 21 21 21 15 6 6 9 6 4 7 5 3 5 4 2 1 5 6 4 4 6 8 7 5 5 5 3 2
12 7 10 14 13 13 14 15 15 16 18 13 5 3 6 6 6 5 4 5 2 6 6 6 5 4 3 4 4 5 4 2 1 4 1 4 7 9 7 6 6 8 8 3 5 12 13 13 17 16 13 15 16 14 10 8 10 9 7 6 14 19 22 19 14 10 11 8 7 7 4 3 5 4 3 3 5 5 4 5 6 7 8 9 9 8 6 5
10 7 12 15 14 15 17 17 13 13 15 8 5 8 6 4 4 2 2 2 3 3 3 4 4 3 1 2 2 3 4 1 3 4 3 0 2 4 6 7 8 10 9 3 3 3 5 5 11 12 6 7 13 13 11 8 3 5 7 4 4 12 13 5 3 8 6 3 7 8 5 5 7 5 5 5 6 6 6 6 5 7 9 9 9 9 8 6
8 9 14 14 15 17 17 17 13 12 12 7 7 11 8 6 6 6 5 4 5 2 4 5 4 3 2 2 2 2 2 2 1 3 4 4 3 3 6 10 12 13 12 6 5 2 3 1 3 6 5 4 3 2 5 8 8 8 6 6 6 1 5 5 6 7 5 6 7 8 10 13 11 9 8 7 7 7 7 9 8 9 11 11 8 8 6 4
9 11 16 15 16 17 13 13 13 10 9 6 6 9 8 6 5 6 8 7 6 2 4 7 4 3 3 2 1 2 1 1 2 3 6 4 3 5 8 8 11 15 16 14 10 7 5 2 1 3 5 8 7 6 9 7 6 7 6 7 10 6 1 3 5 6 7 10 11 7 13 19 15 13 12 9 9 8 8 9 9 9 10 10 8 9 6 4
9 13 18 16 15 16 13 13 14 9 5 3 4 6 8 8 5 5 7 8 8 4 4 7 5 2 4 3 2 4 4 4 2 3 3 6 6 5 7 7 9 13 16 18 16 10 6 4 2 4 7 9 7 4 2 3 7 11 9 6 7 7 4 3 6 6 7 8 9 8 15 17 15 15 13 10 11 10 7 7 6 5 6 7 7 8 6 6
10 14 19 15 12 12 11 13 14 8 5 3 5 6 8 8 7 6 6 6 8 4 4 8 8 4 3 3 3 5 5 6 4 3 1 5 6 4 5 6 8 9 13 19 17 9 6 6 5 4 7 6 4 4 4 2 5 11 13 13 8 4 3 4 6 7 6 6 7 10 12 10 10 14 14 14 13 11 8 8 6 5 5 7 6 4 3 5
9 14 19 14 10 9 7 7 9 6 3 6 5 4 8 8 5 4 2 5 8 5 3 6 8 6 4 4 4 4 5 8 7 3 2 1 3 2 2 3 5 8 11 14 13 10 8 7 6 5 7 5 3 5 7 8 4 3 9 14 13 9 9 9 10 10 7 9 14 18 16 12 12 14 16 16 14 10 8 8 7 5 5 6 4 4 3 3
11 17 18 13 11 12 9 6 8 6 6 9 6 3 7 9 6 6 5 3 6 6 3 4 5 5 5 5 4 3 5 7 8 4 4 5 2 2 1 1 1 5 7 6 6 11 12 7 4 5 7 7 6 7 8 8 5 2 6 11 13 13 16 16 14 12 11 13 17 19 17 15 14 14 15 13 10 8 6 6 6 4 5 5 4 5 4 3
15 19 15 9 8 10 9 8 9 6 5 7 7 4 7 7 6 8 9 5 5 7 6 5 4 5 7 6 4 1 5 8 8 4 2 7 5 3 1 1 2 2 3 2 3 8 9 5 5 5 6 7 8 8 8 6 3 3 7 10 10 9 11 13 13 13 13 15 15 15 14 13 13 12 9 7 8 7 5 4 3 3 3 4 5 6 5 3
15 15 11 10 8 8 10 9 7 5 6 7 6 5 7 8 3 7 9 7 4 4 4 5 4 6 8 7 2 2 6 9 9 9 8 3 3 1 2 1 1 2 2 2 4 6 5 5 6 5 7 9 6 4 5 4 3 2 4 7 9 7 5 6 8 10 12 14 14 14 13 14 12 7 3 4 8 7 5 3 4 4 3 3 5 6 6 5
Wind_Direction
264 263 262 261 260 259 257 256 255 255 255 255 254 253 252 253 253 251 249 246 245 243 243 244 244 244 245 246 246 245 245 244 243 238 232 229 223 217 217 217 214 209 209 213 207 206 201 195 196 197 200 202 199 202 192 169 171 206 229 239 234 216 196 174 324 350 119 333 19 178 138 132 90 64 24 49 77 2 259 259 268 268 275 275 272 268 270 267
264 263 262 260 259 257 255 254 253 253 252 252 251 250 249 249 250 250 248 244 242 241 241 241 242 243 244 246 247 247 246 246 244 234 232 233 222 217 218 216 213 208 207 209 205 204 199 194 193 196 198 199 192 187 191 176 175 197 215 236 234 210 185 220 323 312 266 289 83 28 147 150 346 2 355 6 117 301 255 250 263 269 277 275 267 265 266 260
262 261 260 259 258 255 253 251 250 250 250 250 249 247 245 245 246 246 244 242 240 238 238 238 239 241 242 245 246 247 248 248 245 234 233 235 222 220 219 215 214 206 203 204 203 198 194 192 189 192 193 191 185 180 185 182 192 201 211 228 222 205 223 310 315 281 279 282 147 104 85 119 84 347 336 349 168 209 263 260 259 270 285 275 263 268 272 259
261 260 260 259 257 255 252 250 248 247 247 247 246 245 244 243 243 243 242 239 237 236 236 235 235 237 238 241 243 245 246 248 247 235 235 234 224 223 219 215 212 204 203 204 201 195 192 186 181 184 184 181 172 171 193 201 212 217 222 219 204 221 255 298 310 271 271 278 224 180 124 100 55 328 301 208 164 226 286 290 286 296 296 272 263 277 277 253
259 259 259 258 256 254 252 249 247 245 244 244 244 244 242 241 241 241 240 237 235 234 233 232 232 233 235 238 239 239 240 245 241 227 228 229 222 219 214 213 209 204 202 203 202 200 198 182 169 177 176 171 168 175 204 213 222 227 236 234 229 255 262 278 296 280 271 275 274 244 246 296 301 304 287 211 262 271 279 288 294 306 296 267 269 281 268 245
257 257 257 257 256 254 252 249 246 244 242 242 242 242 240 239 239 239 238 236 234 233 231 230 229 229 232 234 234 232 231 232 227 216 213 211 211 210 208 209 205 204 201 199 200 202 206 186 168 182 181 169 176 192 206 211 221 229 238 247 257 270 270 277 281 287 287 277 279 277 265 263 258 274 268 236 285 278 273 274 286 296 290 289 287 277 264 245
256 255 255 255 255 254 252 250 246 244 241 241 240 240 239 238 239 239 237 236 233 231 229 227 227 227 229 231 230 228 226 222 218 213 206 201 201 201 203 206 203 201 198 197 199 199 210 193 172 181 192 178 181 195 203 212 225 233 239 244 252 257 266 280 267 265 284 278 278 282 278 253 244 260 238 248 284 279 272 265 278 288 289 295 284 277 274 254
255 254 254 253 253 253 253 250 246 244 241 240 239 239 238 237 238 239 237 235 233 231 227 225 224 224 225 228 227 226 223 218 219 213 198 199 200 199 198 198 199 197 194 196 198 196 204 198 178 177 188 180 172 182 194 220 234 237 246 253 252 244 251 268 251 250 277 284 282 283 286 271 250 258 224 232 279 276 270 266 275 283 285 288 278 272 276 264
254 253 253 252 251 251 251 250 246 244 241 240 239 239 237 235 237 238 238 236 234 230 226 223 221 222 222 225 226 226 222 213 217 214 198 196 192 193 194 191 193 192 190 191 194 195 195 192 179 172 177 175 181 219 227 235 236 238 252 260 260 253 258 266 253 258 276 282 288 290 291 291 282 275 236 215 246 261 262 264 271 276 277 278 277 276 279 270
253 252 251 251 250 249 249 248 245 242 240 239 238 239 237 235 235 237 238 236 234 231 226 222 220 221 220 224 223 223 223 215 215 215 207 201 185 181 185 186 188 185 187 187 188 196 189 179 174 173 191 212 236 247 242 230 228 236 253 251 254 262 260 260 256 260 274 280 280 275 272 277 272 269 259 223 237 250 256 263 266 267 267 271 282 286 282 269
251 250 249 249 248 248 247 245 243 239 236 235 236 237 236 234 234 236 239 237 236 233 229 223 221 222 220 223 220 218 226 223 219 213 211 208 190 183 181 182 185 181 185 185 184 197 183 162 164 180 223 248 243 238 233 218 219 228 239 242 246 253 249 246 247 246 257 271 264 260 264 265 252 248 244 231 246 251 257 263 259 256 260 270 285 289 277 258
251 249 247 247 247 246 246 243 240 236 233 232 233 235 235 234 234 237 239 239 238 236 233 228 225 224 222 222 215 212 219 227 226 208 206 212 199 195 186 176 181 178 182 184 180 184 168 150 171 207 227 242 225 217 233 226 227 230 231 247 252 254 251 244 245 242 241 252 257 263 267 262 255 249 227 221 248 254 258 259 250 251 262 272 281 280 264 245
250 249 248 246 246 245 244 243 239 236 233 231 231 233 234 234 233 235 238 240 240 237 236 232 228 225 225 221 207 202 201 217 240 206 191 211 204 197 188 177 178 175 180 180 170 171 172 172 205 215 213 218 206 208 236 231 232 235 234 252 260 264 263 251 246 247 242 247 255 251 252 256 251 257 245 228 244 252 254 248 241 251 265 274 281 277 266 248
251 250 248 246 246 245 244 242 238 235 234 231 231 231 231 230 230 232 235 238 239 237 236 233 231 229 226 215 201 209 205 209 232 213 187 207 204 192 186 182 178 175 185 181 169 193 199 194 206 210 207 205 196 205 233 228 224 230 234 246 253 259 265 250 239 243 243 243 248 232 240 258 251 251 258 242 243 251 251 240 237 252 265 276 285 286 283 263
251 251 249 247 245 245 244 242 237 234 234 232 230 229 229 228 228 230 233 235 236 235 234 232 231 231 225 211 205 215 217 217 224 219 200 200 199 192 185 185 181 181 192 188 180 200 206 201 204 205 203 199 195 209 232 223 218 223 233 238 240 250 261 284 241 232 235 236 228 217 231 266 279 273 250 237 241 246 247 244 242 253 265 274 279 286 294 271
248 252 252 249 247 246 246 242 237 233 233 232 230 228 228 228 229 230 230 231 232 231 231 230 230 232 225 212 213 216 218 221 222 221 213 201 195 190 185 185 185 187 193 192 191 199 206 205 206 205 202 202 203 215 230 228 224 219 233 241 236 246 261 286 270 223 221 225 209 204 229 278 292 299 250 237 240 239 244 246 243 254 266 268 268 283 299 272
247 251 253 252 249 246 246 243 236 232 231 231 228 227 227 228 228 227 226 226 227 227 228 229 227 233 232 222 222 222 216 213 216 217 210 202 191 183 188 187 186 193 194 194 197 201 207 207 210 212 208 207 204 212 230 236 235 222 226 238 240 248 261 281 259 197 203 210 199 204 253 292 302 310 274 269 249 236 238 237 237 255 261 257 265 284 295 268
246 248 251 252 248 245 244 241 236 231 230 228 225 224 223 225 225 223 223 222 222 222 225 229 223 223 236 231 229 227 211 204 210 215 206 197 186 176 189 194 187 195 198 199 203 205 211 210 212 215 212 210 205 209 226 230 225 218 219 229 238 242 258 272 220 186 193 191 184 207 278 300 310 308 303 313 256 226 229 229 233 254 256 253 270 283 284 271
244 245 248 247 243 242 239 238 235 229 226 223 219 219 218 221 223 223 225 223 221 220 224 231 217 192 137 133 210 222 206 207 208 207 203 190 182 176 184 200 189 188 198 205 206 206 209 209 211 214 212 211 207 206 219 227 224 226 228 230 243 252 267 268 219 188 188 190 191 216 262 288 289 284 296 320 228 207 220 227 235 255 260 264 274 279 280 278
238 240 245 243 239 237 234 235 231 225 220 214 211 210 214 217 216 220 226 226 224 221 223 231 220 201 159 89 75 211 188 208 217 202 199 187 178 173 180 208 199 185 199 204 199 197 203 211 215 216 212 208 211 210 214 229 235 246 254 257 272 273 275 256 205 183 190 197 200 209 215 244 262 268 276 287 228 217 234 241 247 255 257 261 265 272 279 278
234 235 239 238 235 230 230 230 225 220 213 207 203 203 214 216 213 220 227 227 225 224 223 229 230 213 185 131 125 201 205 211 215 196 194 185 178 171 177 202 205 194 198 189 187 197 203 217 221 217 214 208 209 214 222 235 241 250 265 282 286 276 281 255 197 185 189 188 191 214 237 256 257 258 264 277 274 265 264 257 252 250 249 254 259 270 285 285
232 233 233 231 229 224 223 222 218 216 208 204 200 203 217 221 221 229 236 235 229 230 230 226 229 217 184 150 146 206 239 228 203 195 191 181 181 177 178 195 200 201 198 180 194 214 214 225 226 215 213 211 210 216 230 241 250 257 265 281 276 265 296 295 190 185 196 201 220 237 253 266 261 253 257 272 279 280 283 276 268 257 252 257 264 275 297 296
229 229 230 225 221 218 215 213 213 210 206 203 199 208 222 227 232 238 244 249 240 234 234 226 229 221 185 154 152 205 232 223 197 196 192 184 186 181 181 196 196 199 204 191 198 211 219 231 231 214 205 211 219 222 232 240 249 260 262 266 261 257 290 308 207 187 209 209 210 221 235 261 272 263 257 261 270 282 286 285 284 266 263 273 270 278 305 302
223 225 225 218 215 211 207 207 208 208 207 204 200 209 221 228 237 241 248 258 254 241 237 231 232 226 194 162 161 201 200 195 196 200 200 191 184 178 182 200 198 197 208 204 198 208 225 242 243 214 202 207 223 231 239 246 247 248 251 250 242 249 276 283 277 291 270 239 229 250 256 268 279 284 274 261 257 268 273 277 277 265 274 281 266 267 297 300
218 222 220 214 211 205 203 203 204 207 207 207 207 209 218 227 232 241 253 263 265 253 237 228 223 221 202 180 191 206 192 189 190 203 221 213 190 182 182 196 204 202 207 207 205 215 229 241 244 218 200 203 218 229 234 242 247 242 244 253 233 237 262 273 272 301 304 281 276 279 270 277 287 295 298 270 248 254 251 255 265 269 276 276 264 266 284 291
214 218 216 212 207 202 202 199 198 202 200 205 209 207 217 226 224 241 255 264 275 256 223 221 216 211 198 187 193 204 206 209 190 197 231 234 222 197 184 192 208 208 208 208 215 226 230 235 237 230 222 216 217 226 229 230 238 240 240 257 253 242 252 267 275 296 301 286 286 274 247 275 301 300 296 281 270 272 262 252 256 265 273 274 268 266 273 280
211 215 216 212 206 202 199 196 196 200 202 204 201 197 204 211 213 229 238 269 284 237 202 206 205 205 200 189 188 192 204 223 202 196 226 232 225 207 191 195 210 211 208 210 219 228 234 234 231 233 236 226 218 221 222 217 225 240 244 239 241 246 245 252 265 274 276 272 274 270 260 282 296 295 294 290 287 292 291 272 255 249 258 269 268 266 274 281
210 216 216 211 206 203 198 196 198 201 210 214 204 196 193 192 196 184 185 278 204 180 190 194 189 196 202 192 194 199 193 211 204 195 207 222 213 200 198 198 208 211 203 214 226 223 227 232 228 232 232 219 213 215 212 211 221 240 253 236 230 242 241 238 241 243 255 263 261 267 287 293 290 289 292 292 285 292 328 335 225 219 226 240 264 281 288 276
214 217 217 213 208 203 197 197 203 205 206 211 205 190 183 179 177 164 142 270 168 168 181 189 186 179 184 187 197 206 196 172 209 195 192 208 203 196 202 197 200 212 207 219 234 228 227 234 223 221 222 217 221 223 220 229 233 237 247 239 241 253 255 256 242 230 247 268 261 274 276 267 285 290 290 288 282 290 338 39 135 186 214 233 252 258 247 240
216 219 220 216 210 204 195 195 205 204 196 194 179 167 174 173 170 163 120 196 177 177 182 189 191 178 176 186 197 209 202 187 215 205 190 199 202 198 204 200 202 219 226 227 233 234 235 233 217 217 220 218 222 226 227 228 228 234 238 237 251 260 256 261 261 247 260 279 280 291 270 250 265 299 314 311 275 301 303 266 264 246 212 225 249 257 254 237
218 222 223 218 213 204 195 198 206 202 194 194 178 165 175 172 168 166 149 188 179 177 182 181 184 179 179 190 199 207 201 191 207 209 190 194 202 202 202 206 211 222 238 238 234 238 237 236 230 223 215 215 221 225 226 224 223 228 227 226 244 248 240 253 267 266 276 279 276 278 267 255 248 69 68 95 167 259 279 277 276 278 278 256 255 268 267 226
220 222 225 223 215 203 200 201 206 203 194 195 183 172 172 165 182 204 194 195 186 184 192 180 178 184 184 190 199 197 191 189 198 198 188 189 198 205 203 203 209 217 235 240 236 236 237 243 242 219 214 222 217 209 215 227 230 223 215 217 236 242 216 259 275 251 230 249 259 258 261 260 221 119 82 125 158 234 262 275 274 272 284 299 290 283 279 248
224 220 224 225 211 205 205 195 195 196 186 190 189 175 167 155 211 209 199 185 176 188 204 186 179 185 185 189 198 194 185 186 190 190 190 190 194 207 209 203 206 216 227 235 236 232 232 239 236 222 222 220 201 196 212 227 226 206 203 214 220 169 101 252 220 226 234 239 243 241 250 245 157 129 102 192 208 247 254 271 275 273 279 291 304 299 299 309
226 221 221 219 206 206 203 188 191 192 181 187 186 171 167 171 206 208 206 202 191 218 211 187 178 182 189 194 197 196 193 189 187 188 190 190 190 200 209 206 204 212 219 228 235 233 231 231 224 220 224 222 218 219 219 221 224 212 206 217 221 207 205 230 204 195 198 222 235 224 237 230 139 119 63 229 242 262 267 275 275 276 276 281 298 305 307 314
227 224 218 212 205 203 197 187 189 190 184 184 179 171 181 195 195 208 223 248 260 257 209 179 168 175 191 200 203 199 199 192 185 187 190 191 193 197 206 211 205 204 214 223 228 232 240 237 222 217 227 228 225 223 216 220 235 228 209 210 223 218 214 232 251 249 206 76 359 152 93 90 127 125 169 263 275 272 274 277 270 269 269 271 284 296 304 311
223 220 210 203 196 191 191 189 186 187 185 181 178 182 193 195 180 186 265 292 260 222 200 176 165 175 193 209 219 206 202 197 184 184 189 193 203 208 208 215 213 206 211 221 225 224 237 244 221 210 225 225 219 232 235 225 229 226 205 204 218 227 224 235 251 253 254 61 208 206 128 128 135 124 176 244 293 308 298 293 284 279 276 273 272 275 284 302
214 206 195 193 190 181 184 190 186 184 184 182 183 190 199 197 180 270 282 274 228 213 313 179 180 209 207 215 229 213 210 206 185 183 190 193 207 215 210 214 221 213 207 215 227 226 234 250 222 215 229 225 223 245 250 225 226 235 224 213 215 219 228 240 250 241 231 122 205 206 159 145 140 118 184 250 316 342 331 313 300 288 279 269 255 247 258 343
199 185 173 184 189 178 177 187 184 181 182 185 191 196 203 199 185 311 274 229 208 268 302 152 175 229 213 217 228 213 207 199 176 181 195 196 205 211 209 213 220 216 207 211 223 228 234 244 229 228 238 225 214 222 224 226 236 242 245 241 222 208 221 234 236 176 153 149 248 182 152 134 92 87 33 354 27 10 333 319 317 284 207 206 193 154 111 69
180 169 163 178 182 172 176 182 179 181 184 190 196 193 188 190 191 314 271 182 168 242 225 174 296 281 248 247 241 202 192 187 173 183 200 206 210 203 200 210 217 217 212 211 219 224 222 227 232 226 230 226 207 210 221 230 234 239 245 251 247 238 235 231 221 203 174 173 227 147 125 86 40 57 13 352 6 348 323 325 333 306 162 107 142 121 101 78
169 159 160 171 170 167 176 178 179 186 187 192 195 179 171 241 280 256 254 238 207 218 221 230 293 323 326 317 307 181 180 181 174 185 200 204 206 195 187 205 219 215 211 210 218 224 216 214 230 215 221 240 221 208 223 230 222 223 236 249 253 245 245 245 221 218 200 147 171 134 79 41 57 79 359 321 284 290 282 291 311 297 248 96 141 134 111 108
166 154 159 167 163 166 176 180 182 188 190 191 187 170 193 282 295 284 286 269 230 216 220 232 279 338 353 9 21 35 137 171 163 181 206 209 200 202 198 219 261 216 202 205 214 221 214 209 221 216 225 254 235 204 222 231 221 217 226 241 249 247 248 246 200 210 206 162 142 129 117 84 89 96 40 319 270 269 255 243 268 284 295 27 230 222 153 137
169 158 162 165 162 167 180 184 183 190 195 186 174 160 300 283 277 306 333 323 237 207 211 240 289 326 343 17 59 58 35 104 133 175 221 223 229 240 238 252 279 238 193 192 198 205 206 210 218 218 228 247 235 214 229 233 227 233 242 239 233 238 244 241 232 201 186 173 124 114 120 112 100 104 79 314 254 250 246 237 253 272 284 290 277 264 245 223
173 163 159 159 161 169 180 183 183 195 194 176 166 284 284 272 264 263 303 326 249 187 188 230 267 299 345 38 56 19 17 172 177 14 68 200 226 230 235 268 262 217 209 207 166 179 187 201 204 203 215 229 231 242 257 243 222 239 280 247 209 216 229 241 254 226 186 169 149 124 96 108 130 149 177 196 222 229 226 229 246 261 273 285 273 249 247 261
178 173 161 158 164 173 175 171 177 202 198 187 252 248 235 249 242 219 270 258 196 205 216 212 235 261 297 14 355 2 28 178 262 349 34 27 279 216 222 264 260 221 212 272 340 167 165 176 184 180 181 220 239 259 271 269 289 37 26 14 187 201 202 202 215 188 157 126 156 144 111 143 161 175 188 202 225 228 220 221 243 262 271 284 269 242 240 235
181 181 169 163 169 174 171 164 171 205 208 208 246 238 231 240 216 196 202 167 148 230 236 184 184 227 235 292 268 189 65 48 240 321 319 296 298 257 246 258 255 234 217 243 300 229 177 67 144 157 135 139 191 343 349 316 336 15 4 355 18 178 182 113 108 132 92 74 115 123 131 148 161 181 194 214 234 240 245 248 262 273 271 272 259 240 240 216
183 174 168 165 167 171 174 169 171 188 197 200 231 230 221 219 206 203 206 180 143 153 208 189 188 219 206 192 163 182 260 310 208 299 298 255 229 259 256 252 251 241 227 229 244 237 218 233 74 109 107 110 116 68 26 357 3 21 357 359 27 40 105 152 127 112 102 92 78 94 142 144 153 183 203 223 235 246 260 260 268 280 279 273 244 218 212 187
181 165 165 166 168 175 180 172 163 150 136 179 230 209 196 202 206 219 224 200 167 152 200 195 191 234 227 213 222 215 209 211 237 320 283 205 196 228 248 249 248 243 235 231 233 237 229 207 140 103 105 105 115 115 27 18 62 58 46 37 32 30 43 151 149 131 136 114 81 111 149 147 162 189 202 215 228 241 249 251 258 256 258 259 233 213 195 164
181 166 166 165 165 176 179 171 167 147 112 171 214 195 196 211 216 230 247 203 176 193 240 208 198 205 204 198 225 235 220 219 250 335 18 180 177 190 226 240 246 247 241 234 228 227 224 199 177 155 136 118 121 163 204 237 78 79 78 76 70 59 72 136 153 149 173 181 156 159 162 158 180 202 207 209 221 237 235 233 229 207 238 259 240 223 202 166
174 161 164 161 152 154 158 169 178 170 165 203 225 222 206 203 188 187 202 165 172 194 244 202 187 178 184 190 194 215 228 224 232 271 331 178 162 171 223 232 242 247 237 227 218 213 209 195 186 176 154 153 189 188 208 232 230 121 94 87 90 108 121 138 152 154 168 179 175 177 177 171 184 210 216 215 228 238 224 228 230 209 237 266 243 220 231 199
144 143 154 158 151 146 140 149 167 180 206 202 203 214 193 192 183 156 141 167 197 192 172 172 179 194 210 198 175 187 205 210 223 247 329 336 286 223 257 169 216 243 232 221 212 209 206 189 176 173 151 162 191 181 184 210 227 186 134 117 109 115 126 135 141 145 150 158 171 182 181 175 187 209 217 219 230 234 226 244 262 242 232 248 244 235 240 203
135 138 141 131 127 138 141 144 152 174 201 176 173 188 171 174 201 178 152 149 200 203 191 179 197 234 207 162 111 123 187 192 207 201 11 336 299 250 228 169 144 185 202 166 165 201 204 174 152 168 155 158 178 179 177 191 185 132 132 123 108 107 124 131 134 140 147 156 172 186 187 194 211 221 225 214 199 210 236 242 253 262 241 236 233 231 228 198
131 136 127 103 100 129 149 149 142 159 171 153 159 187 155 139 184 200 164 143 167 218 200 175 208 240 206 175 148 244 204 196 187 152 116 62 316 259 167 166 76 75 109 116 124 154 178 163 153 158 147 148 161 174 171 166 144 118 113 105 94 85 97 129 149 156 154 158 173 185 193 210 225 232 243 190 175 197 241 212 197 233 236 213 216 221 225 227
Height
3077 3077 3078 3078 3078 3079 3079 3080 3080 3081 3082 3083 3084 3085 3086 3086 3087 3088 3088 3088 3088 3089 3089 3089 3090 3091 3092 3093 3093 3094 3095 3096 3097 3098 3100 3101 3102 3103 3104 3105 3106 3108 3109 3110 3111 3112 3113 3114 3116 3117 3118 3119 3121 3122 3123 3122 3124 3127 3128 3128 3126 3125 3126 3128 3132 3132 3129 3129 3128 3129 3129 3129 3129 3130 3131 3132 3134 3134 3133 3132 3132 3133 3135 3136 3137 3138 3138 3139
3075 3075 3076 3076 3076 3077 3077 3077 3078 3079 3080 3081 3082 3083 3083 3084 3085 3086 3086 3086 3086 3086 3086 3087 3088 3089 3090 3090 3091 3092 3093 3094 3095 3097 3099 3099 3100 3102 3103 3104 3105 3106 3108 3109 3110 3111 3112 3114 3114 3116 3117 3118 3120 3121 3122 3123 3123 3125 3126 3126 3124 3124 3125 3128 3132 3131 3128 3128 3128 3128 3128 3129 3129 3130 3130 3131 3133 3134 3132 3131 3131 3134 3135 3135 3136 3137 3137 3137
3073 3073 3074 3074 3074 3075 3075 3076 3076 3077 3078 3079 3080 3081 3082 3082 3083 3084 3085 3085 3085 3084 3084 3085 3086 3086 3087 3088 3088 3090 3091 3091 3092 3095 3097 3096 3098 3100 3101 3102 3103 3105 3106 3108 3109 3110 3111 3112 3113 3115 3116 3117 3119 3120 3121 3122 3123 3123 3124 3122 3121 3124 3125 3128 3131 3129 3127 3127 3127 3127 3127 3128 3129 3129 3130 3130 3132 3133 3131 3129 3131 3133 3133 3133 3134 3135 3135 3135
3070 3071 3071 3072 3072 3073 3073 3074 3074 3075 3076 3077 3078 3079 3080 3081 3082 3082 3083 3083 3083 3082 3082 3083 3084 3084 3085 3085 3086 3088 3089 3089 3091 3093 3094 3094 3096 3097 3099 3100 3102 3103 3105 3106 3107 3108 3109 3110 3112 3114 3115 3116 3118 3119 3120 3121 3122 3123 3122 3120 3120 3124 3125 3127 3129 3127 3125 3125 3126 3127 3127 3128 3129 3129 3130 3130 3131 3131 3129 3129 3130 3131 3132 3133 3133 3134 3134 3134
3068 3068 3069 3070 3070 3071 3071 3072 3072 3073 3074 3075 3076 3077 3078 3079 3080 3081 3081 3081 3081 3081 3081 3081 3082 3082 3083 3083 3084 3086 3087 3087 3088 3090 3091 3092 3094 3095 3097 3098 3100 3102 3103 3105 3106 3107 3108 3109 3110 3113 3114 3115 3117 3117 3118 3120 3122 3122 3120 3120 3122 3124 3124 3125 3127 3126 3124 3124 3125 3126 3127 3128 3128 3128 3129 3130 3131 3129 3129 3129 3129 3130 3131 3133 3133 3133 3133 3133
3065 3066 3067 3067 3068 3069 3069 3070 3070 3071 3071 3072 3074 3075 3076 3077 3078 3079 3080 3080 3080 3079 3079 3080 3080 3081 3081 3081 3083 3084 3085 3085 3086 3088 3089 3090 3092 3093 3095 3096 3098 3100 3101 3103 3105 3106 3108 3108 3109 3112 3113 3114 3115 3116 3118 3120 3121 3121 3119 3120 3122 3123 3123 3124 3126 3125 3123 3123 3124 3125 3126 3127 3127 3127 3128 3129 3130 3129 3129 3129 3129 3129 3130 3133 3133 3132 3132 3132
3063 3063 3064 3065 3066 3066 3067 3068 3069 3069 3069 3070 3072 3073 3074 3075 3076 3077 3078 3078 3078 3078 3078 3078 3078 3079 3079 3080 3081 3081 3082 3084 3085 3087 3088 3089 3090 3091 3093 3095 3097 3098 3100 3102 3104 3105 3107 3107 3108 3110 3112 3113 3114 3115 3117 3119 3121 3120 3119 3119 3121 3122 3123 3123 3125 3123 3121 3121 3122 3123 3124 3125 3126 3126 3128 3128 3127 3126 3126 3127 3128 3128 3129 3131 3132 3132 3131 3131
3060 3061 3062 3063 3063 3064 3065 3066 3067 3067 3068 3068 3070 3071 3072 3073 3074 3075 3076 3077 3077 3076 3076 3076 3077 3077 3077 3078 3078 3079 3080 3082 3084 3085 3087 3088 3089 3090 3091 3093 3095 3097 3099 3101 3103 3104 3105 3106 3107 3109 3111 3112 3114 3114 3117 3119 3119 3119 3118 3118 3119 3119 3121 3122 3122 3122 3121 3121 3121 3122 3122 3123 3124 3125 3127 3127 3125 3124 3123 3126 3127 3127 3128 3130 3131 3130 3130 3129
3058 3059 3059 3060 3061 3062 3063 3064 3065 3065 3065 3066 3067 3069 3070 3071 3072 3073 3075 3075 3075 3075 3075 3075 3075 3075 3076 3076 3077 3078 3078 3080 3082 3084 3085 3086 3087 3089 3090 3092 3094 3096 3098 3100 3101 3103 3104 3105 3107 3109 3110 3112 3113 3113 3116 3118 3118 3118 3118 3117 3118 3118 3119 3120 3121 3121 3121 3120 3121 3121 3121 3122 3123 3124 3125 3126 3125 3123 3122 3124 3126 3127 3127 3128 3129 3129 3129 3128
3056 3056 3057 3058 3059 3059 3060 3062 3063 3063 3063 3064 3065 3067 3068 3069 3070 3072 3073 3073 3073 3073 3073 3073 3073 3073 3074 3074 3075 3076 3076 3079 3081 3082 3084 3085 3086 3087 3089 3090 3092 3094 3096 3098 3100 3102 3103 3105 3107 3109 3110 3111 3112 3112 3113 3115 3116 3117 3117 3116 3117 3117 3118 3118 3119 3120 3120 3120 3120 3120 3121 3121 3123 3123 3124 3125 3123 3121 3121 3123 3125 3126 3126 3126 3127 3127 3127 3126
3053 3054 3055 3056 3056 3057 3058 3060 3060 3061 3061 3062 3063 3065 3066 3067 3068 3070 3071 3072 3072 3072 3072 3072 3072 3072 3072 3073 3074 3075 3075 3077 3079 3081 3083 3084 3086 3087 3088 3090 3091 3093 3095 3097 3099 3101 3103 3104 3107 3109 3110 3110 3110 3111 3111 3112 3113 3115 3115 3116 3116 3116 3116 3116 3116 3118 3119 3119 3119 3119 3120 3120 3121 3121 3122 3123 3121 3120 3120 3122 3123 3124 3125 3125 3125 3126 3126 3124
3051 3052 3053 3053 3054 3055 3056 3057 3058 3059 3059 3060 3061 3062 3064 3066 3067 3068 3069 3070 3070 3070 3070 3070 3070 3070 3071 3071 3073 3075 3075 3075 3077 3080 3082 3083 3085 3086 3087 3089 3090 3092 3094 3096 3098 3100 3102 3103 3106 3108 3109 3109 3110 3111 3111 3111 3111 3112 3113 3114 3114 3114 3113 3113 3114 3116 3117 3117 3117 3118 3118 3118 3119 3119 3120 3121 3120 3120 3120 3120 3121 3121 3122 3124 3125 3125 3124 3123
3049 3050 3050 3051 3052 3053 3054 3055 3056 3057 3058 3058 3059 3061 3062 3064 3065 3066 3067 3068 3069 3069 3069 3069 3069 3069 3069 3071 3072 3073 3074 3075 3076 3079 3081 3081 3083 3085 3086 3088 3089 3091 3093 3095 3096 3099 3101 3102 3104 3104 3105 3106 3107 3108 3109 3110 3111 3111 3112 3112 3112 3113 3110 3110 3113 3114 3115 3115 3116 3118 3117 3116 3117 3117 3118 3120 3120 3118 3119 3119 3119 3120 3121 3123 3124 3124 3123 3122
3047 3048 3048 3049 3050 3050 3052 3053 3054 3055 3056 3056 3057 3059 3061 3062 3063 3065 3066 3066 3067 3067 3067 3067 3067 3067 3068 3070 3071 3071 3072 3075 3075 3077 3079 3080 3082 3083 3085 3087 3088 3090 3092 3093 3094 3097 3099 3099 3100 3100 3101 3103 3104 3106 3106 3108 3109 3110 3111 3111 3111 3111 3108 3107 3111 3112 3112 3113 3115 3117 3116 3114 3115 3116 3116 3119 3120 3117 3117 3117 3117 3120 3122 3122 3123 3123 3122 3121
3045 3046 3046 3047 3047 3048 3049 3051 3052 3053 3054 3055 3056 3057 3059 3060 3061 3063 3064 3065 3065 3066 3066 3066 3066 3066 3067 3068 3069 3069 3071 3073 3073 3075 3077 3079 3080 3082 3084 3085 3087 3089 3090 3092 3092 3094 3096 3097 3098 3099 3101 3103 3104 3105 3106 3107 3108 3108 3109 3109 3110 3109 3106 3106 3109 3110 3109 3111 3113 3115 3115 3112 3113 3115 3115 3118 3120 3117 3115 3116 3116 3119 3121 3122 3122 3122 3121 3120
3043 3044 3044 3045 3045 3046 3047 3049 3050 3051 3052 3053 3054 3056 3057 3058 3060 3061 3062 3063 3063 3064 3064 3064 3064 3065 3066 3066 3067 3068 3070 3071 3072 3074 3076 3077 3079 3081 3083 3084 3086 3088 3089 3091 3092 3093 3095 3096 3097 3099 3101 3102 3103 3104 3105 3106 3106 3107 3108 3108 3108 3107 3104 3104 3106 3106 3108 3110 3112 3113 3114 3112 3111 3114 3115 3117 3118 3117 3114 3114 3116 3118 3120 3121 3121 3121 3121 3119
3041 3042 3042 3043 3043 3044 3046 3047 3048 3049 3050 3051 3053 3054 3055 3056 3058 3059 3060 3061 3062 3062 3062 3062 3063 3064 3064 3065 3066 3067 3069 3070 3071 3073 3074 3076 3078 3079 3081 3083 3085 3087 3088 3090 3091 3092 3094 3095 3097 3098 3099 3100 3101 3103 3104 3103 3103 3105 3106 3106 3106 3105 3104 3104 3103 3103 3108 3110 3110 3112 3113 3111 3110 3112 3113 3114 3114 3113 3113 3114 3116 3117 3118 3120 3120 3120 3121 3120
3039 3040 3040 3041 3042 3042 3044 3046 3047 3048 3049 3050 3051 3052 3054 3055 3056 3057 3058 3059 3060 3060 3061 3061 3062 3063 3063 3063 3065 3067 3068 3069 3070 3071 3073 3075 3076 3078 3080 3082 3084 3086 3087 3089 3090 3091 3093 3094 3096 3096 3097 3098 3099 3100 3101 3101 3101 3103 3104 3104 3104 3104 3104 3104 3104 3104 3107 3109 3109 3111 3111 3109 3109 3110 3111 3111 3108 3109 3113 3114 3116 3117 3117 3118 3118 3119 3120 3120
3037 3038 3039 3040 3040 3041 3043 3044 3045 3046 3047 3048 3050 3051 3052 3053 3054 3055 3056 3056 3058 3059 3059 3059 3060 3062 3062 3063 3065 3066 3066 3068 3069 3070 3072 3074 3075 3077 3080 3081 3083 3085 3086 3088 3089 3090 3091 3093 3094 3094 3094 3095 3096 3098 3099 3100 3100 3101 3103 3104 3104 3104 3104 3103 3103 3104 3106 3108 3108 3109 3110 3108 3108 3109 3110 3111 3108 3109 3112 3113 3114 3115 3115 3116 3116 3117 3118 3119
3035 3036 3037 3038 3039 3040 3041 3043 3044 3045 3046 3047 3048 3049 3050 3051 3052 3052 3053 3054 3056 3057 3057 3058 3059 3060 3061 3062 3064 3065 3065 3067 3068 3069 3071 3073 3074 3076 3079 3081 3082 3084 3085 3086 3088 3089 3090 3091 3091 3091 3092 3094 3096 3098 3099 3099 3100 3101 3103 3105 3105 3105 3104 3103 3103 3104 3104 3106 3107 3108 3109 3108 3108 3108 3109 3112 3112 3111 3111 3110 3112 3113 3113 3113 3114 3115 3116 3117
3033 3034 3036 3036 3037 3038 3040 3041 3042 3043 3044 3045 3047 3048 3048 3049 3050 3050 3051 3052 3054 3055 3055 3056 3057 3059 3060 3060 3062 3064 3065 3066 3068 3069 3070 3072 3074 3075 3077 3079 3081 3082 3083 3085 3087 3089 3089 3089 3089 3089 3092 3094 3095 3098 3099 3099 3099 3101 3102 3104 3103 3102 3103 3104 3103 3103 3103 3105 3106 3107 3108 3108 3108 3108 3107 3110 3112 3112 3111 3110 3111 3111 3111 3111 3111 3113 3114 3116
3032 3033 3034 3035 3036 3037 3038 3039 3041 3042 3043 3044 3045 3046 3046 3048 3048 3049 3050 3050 3051 3053 3053 3054 3055 3057 3059 3059 3061 3064 3065 3066 3067 3068 3069 3071 3072 3074 3075 3078 3080 3081 3082 3084 3086 3088 3088 3087 3087 3089 3091 3094 3095 3096 3098 3098 3099 3100 3101 3102 3101 3100 3101 3102 3103 3103 3103 3104 3105 3105 3107 3107 3107 3107 3106 3107 3109 3110 3109 3108 3109 3110 3110 3109 3110 3112 3112 3114
3030 3031 3032 3033 3034 3035 3036 3038 3039 3040 3041 3042 3044 3045 3045 3047 3048 3048 3048 3048 3050 3051 3051 3052 3053 3055 3058 3058 3059 3063 3064 3064 3066 3066 3068 3069 3071 3073 3075 3077 3079 3080 3082 3083 3083 3086 3086 3084 3086 3089 3091 3093 3094 3095 3096 3097 3098 3099 3100 3101 3100 3100 3101 3102 3102 3103 3103 3103 3103 3104 3105 3105 3106 3107 3106 3106 3106 3107 3108 3106 3106 3108 3109 3108 3109 3110 3110 3111
3029 3030 3031 3032 3033 3034 3035 3037 3038 3039 3040 3041 3042 3043 3044 3046 3047 3047 3047 3047 3047 3048 3049 3050 3051 3053 3056 3057 3058 3061 3063 3063 3065 3065 3066 3069 3070 3072 3074 3076 3078 3079 3081 3082 3082 3084 3083 3082 3086 3088 3090 3091 3093 3094 3094 3095 3097 3098 3099 3099 3099 3100 3100 3100 3101 3103 3103 3102 3102 3102 3103 3103 3104 3105 3104 3105 3106 3106 3108 3107 3105 3106 3107 3107 3108 3108 3108 3110
3027 3028 3029 3030 3031 3032 3034 3035 3037 3038 3039 3040 3041 3042 3043 3045 3046 3046 3046 3046 3045 3045 3047 3047 3048 3050 3053 3056 3057 3060 3062 3062 3064 3065 3065 3068 3070 3071 3073 3075 3078 3078 3080 3081 3082 3083 3081 3082 3086 3088 3088 3090 3091 3092 3093 3094 3095 3096 3097 3098 3099 3099 3099 3098 3099 3101 3102 3101 3101 3101 3101 3101 3103 3103 3103 3104 3105 3106 3107 3107 3105 3104 3105 3105 3106 3107 3107 3109
3026 3027 3028 3029 3030 3031 3033 3034 3036 3037 3037 3038 3040 3041 3043 3044 3045 3045 3045 3045 3043 3042 3043 3044 3045 3047 3050 3053 3055 3058 3061 3061 3062 3064 3064 3067 3070 3071 3072 3074 3076 3077 3078 3080 3082 3082 3081 3082 3085 3086 3087 3088 3089 3090 3091 3093 3094 3094 3096 3098 3099 3100 3099 3099 3099 3100 3100 3100 3101 3101 3101 3101 3101 3102 3102 3102 3104 3104 3105 3107 3106 3105 3103 3102 3103 3104 3106 3107
3025 3026 3026 3027 3029 3030 3032 3033 3034 3035 3036 3037 3038 3039 3041 3042 3044 3044 3045 3046 3043 3040 3041 3042 3044 3046 3048 3050 3053 3056 3058 3058 3060 3062 3063 3065 3069 3070 3071 3073 3075 3076 3077 3079 3080 3080 3079 3081 3083 3084 3085 3086 3087 3089 3090 3091 3093 3093 3096 3098 3099 3100 3100 3100 3100 3100 3099 3099 3100 3101 3102 3101 3099 3100 3102 3102 3103 3104 3104 3104 3105 3105 3102 3099 3099 3101 3104 3106
3023 3024 3025 3026 3028 3029 3030 3032 3033 3034 3035 3036 3037 3039 3040 3041 3043 3044 3045 3047 3043 3038 3040 3041 3043 3046 3047 3050 3052 3053 3055 3056 3057 3059 3061 3064 3067 3069 3069 3071 3074 3075 3076 3077 3077 3077 3078 3079 3081 3082 3083 3084 3086 3087 3088 3090 3092 3093 3095 3096 3097 3099 3100 3101 3100 3099 3099 3099 3098 3099 3102 3101 3098 3100 3102 3101 3102 3103 3101 3101 3101 3099 3099 3098 3098 3101 3103 3104
3022 3023 3024 3025 3027 3028 3030 3031 3032 3032 3034 3035 3037 3038 3039 3041 3042 3043 3046 3046 3040 3037 3039 3041 3043 3045 3046 3049 3051 3052 3054 3055 3056 3058 3060 3063 3066 3068 3068 3070 3072 3073 3075 3076 3075 3075 3077 3078 3080 3081 3081 3082 3084 3085 3088 3089 3091 3093 3094 3095 3095 3097 3098 3099 3099 3098 3098 3098 3097 3099 3101 3101 3099 3100 3101 3100 3101 3100 3098 3098 3099 3098 3099 3099 3099 3100 3100 3100
3021 3022 3023 3024 3025 3027 3029 3030 3030 3031 3033 3034 3035 3037 3039 3040 3041 3043 3046 3043 3037 3037 3039 3040 3042 3044 3045 3047 3049 3051 3052 3053 3055 3059 3060 3061 3064 3066 3068 3069 3071 3071 3073 3075 3074 3072 3074 3077 3079 3079 3080 3081 3082 3084 3087 3089 3091 3092 3093 3094 3094 3095 3096 3097 3096 3096 3096 3095 3096 3098 3101 3101 3101 3101 3100 3099 3099 3098 3096 3097 3098 3100 3100 3098 3097 3098 3098 3098
3020 3021 3022 3023 3024 3026 3027 3028 3029 3030 3032 3034 3035 3036 3038 3040 3041 3043 3043 3039 3036 3038 3038 3039 3042 3043 3044 3046 3047 3049 3050 3051 3054 3057 3058 3060 3063 3065 3066 3068 3069 3069 3070 3072 3073 3072 3072 3075 3076 3077 3079 3079 3081 3083 3086 3087 3089 3090 3091 3093 3094 3093 3094 3094 3094 3095 3095 3094 3095 3098 3100 3101 3101 3100 3100 3099 3098 3097 3096 3097 3098 3100 3099 3096 3097 3098 3098 3100
3019 3020 3021 3022 3023 3025 3026 3027 3028 3030 3032 3034 3035 3036 3037 3040 3041 3040 3038 3036 3036 3037 3037 3039 3041 3042 3044 3045 3046 3048 3049 3050 3053 3056 3057 3058 3060 3062 3064 3065 3066 3068 3068 3069 3071 3071 3070 3072 3074 3076 3078 3078 3078 3081 3084 3085 3086 3088 3089 3091 3092 3092 3093 3094 3094 3094 3094 3094 3096 3098 3099 3099 3099 3099 3099 3098 3097 3096 3096 3097 3098 3099 3098 3096 3097 3098 3098 3100
3018 3019 3020 3021 3022 3024 3024 3026 3028 3029 3031 3033 3034 3035 3037 3039 3039 3036 3034 3035 3036 3036 3036 3038 3039 3041 3043 3045 3046 3048 3049 3050 3052 3055 3056 3057 3060 3061 3063 3065 3066 3067 3067 3068 3070 3070 3070 3071 3073 3074 3076 3077 3077 3079 3082 3083 3084 3086 3087 3089 3090 3091 3094 3096 3095 3095 3094 3094 3095 3097 3097 3097 3097 3098 3098 3098 3097 3097 3096 3097 3098 3098 3097 3096 3096 3097 3097 3098
3017 3018 3018 3020 3021 3022 3023 3025 3026 3028 3029 3031 3033 3034 3036 3037 3036 3034 3034 3035 3035 3035 3035 3036 3038 3040 3042 3043 3044 3046 3047 3049 3051 3054 3055 3057 3058 3060 3062 3064 3065 3066 3067 3068 3068 3069 3069 3069 3070 3072 3073 3075 3076 3078 3080 3082 3083 3085 3086 3088 3089 3089 3092 3094 3092 3093 3093 3092 3093 3094 3095 3096 3096 3097 3098 3097 3098 3098 3097 3098 3098 3097 3097 3097 3096 3096 3096 3096
3015 3016 3018 3019 3020 3021 3022 3024 3025 3026 3028 3030 3032 3033 3034 3034 3034 3034 3034 3035 3035 3036 3035 3036 3037 3040 3041 3042 3043 3044 3045 3047 3050 3052 3054 3055 3057 3058 3060 3062 3063 3065 3066 3067 3066 3067 3069 3068 3069 3071 3071 3072 3075 3077 3080 3081 3082 3083 3085 3086 3087 3087 3090 3090 3089 3090 3090 3091 3092 3093 3094 3094 3095 3096 3096 3097 3097 3098 3098 3099 3098 3097 3097 3097 3096 3095 3095 3095
3014 3015 3017 3018 3019 3020 3021 3023 3024 3026 3027 3029 3031 3031 3032 3032 3033 3034 3035 3035 3034 3034 3035 3036 3037 3039 3040 3041 3042 3044 3045 3046 3048 3050 3052 3054 3056 3057 3059 3060 3061 3062 3063 3064 3065 3066 3067 3067 3068 3070 3070 3071 3073 3075 3078 3079 3079 3080 3082 3082 3084 3086 3088 3088 3088 3088 3088 3091 3092 3091 3093 3094 3094 3095 3095 3096 3096 3097 3098 3098 3098 3097 3096 3096 3096 3095 3094 3094
3014 3015 3016 3017 3018 3019 3020 3022 3023 3025 3027 3028 3029 3030 3031 3032 3033 3034 3035 3034 3033 3033 3034 3035 3037 3038 3040 3040 3041 3042 3044 3045 3046 3048 3050 3052 3054 3055 3057 3058 3060 3061 3062 3063 3064 3065 3066 3065 3066 3068 3069 3071 3072 3074 3076 3077 3077 3079 3080 3081 3082 3085 3086 3087 3087 3086 3088 3090 3090 3089 3091 3093 3094 3095 3095 3096 3096 3097 3097 3098 3097 3096 3095 3094 3094 3094 3094 3094
3013 3014 3015 3017 3018 3018 3019 3021 3023 3024 3027 3028 3028 3029 3031 3032 3033 3034 3034 3034 3034 3033 3033 3035 3037 3038 3039 3040 3040 3040 3042 3044 3045 3047 3049 3050 3051 3052 3055 3057 3058 3059 3061 3062 3063 3064 3065 3065 3065 3067 3068 3070 3072 3073 3074 3075 3077 3078 3079 3081 3082 3083 3084 3085 3085 3086 3087 3089 3089 3088 3089 3092 3094 3095 3096 3096 3096 3096 3096 3096 3097 3096 3095 3094 3093 3094 3094 3094
3013 3014 3014 3016 3017 3018 3019 3021 3023 3024 3026 3027 3028 3029 3031 3032 3033 3034 3033 3034 3035 3034 3033 3035 3037 3038 3038 3039 3039 3039 3040 3042 3044 3046 3047 3049 3050 3051 3053 3056 3057 3058 3060 3061 3062 3063 3064 3064 3065 3066 3067 3069 3071 3072 3073 3074 3075 3077 3077 3079 3080 3081 3082 3082 3082 3083 3085 3087 3088 3088 3090 3093 3094 3094 3095 3095 3095 3095 3095 3096 3097 3096 3096 3095 3094 3094 3095 3095
3012 3013 3014 3015 3016 3018 3019 3021 3022 3024 3025 3026 3028 3030 3031 3033 3034 3033 3033 3034 3035 3034 3034 3035 3036 3036 3036 3037 3037 3037 3039 3040 3042 3044 3046 3048 3049 3051 3053 3054 3055 3055 3057 3059 3060 3061 3063 3064 3064 3065 3066 3067 3068 3069 3071 3073 3074 3075 3076 3077 3078 3079 3081 3081 3081 3081 3082 3084 3085 3087 3092 3095 3094 3094 3095 3095 3095 3095 3095 3096 3097 3096 3096 3096 3095 3095 3095 3095
3011 3013 3014 3015 3016 3018 3019 3020 3022 3023 3025 3026 3028 3030 3031 3032 3034 3032 3032 3033 3035 3035 3035 3036 3036 3036 3036 3036 3035 3037 3039 3040 3041 3043 3045 3047 3048 3050 3051 3052 3053 3053 3054 3057 3059 3060 3061 3061 3063 3064 3064 3065 3066 3068 3070 3072 3073 3074 3075 3076 3077 3078 3079 3079 3079 3079 3080 3082 3083 3085 3092 3096 3095 3095 3096 3095 3095 3095 3095 3096 3096 3096 3097 3096 3096 3095 3095 3094
3012 3013 3014 3015 3016 3018 3019 3021 3022 3024 3025 3026 3028 3030 3032 3032 3033 3032 3032 3033 3034 3035 3036 3036 3036 3037 3037 3037 3036 3038 3039 3040 3041 3043 3044 3046 3048 3049 3049 3049 3050 3051 3051 3053 3055 3057 3057 3059 3061 3062 3063 3064 3065 3067 3070 3071 3072 3074 3075 3075 3075 3076 3077 3076 3077 3077 3078 3081 3082 3084 3089 3094 3094 3095 3096 3096 3095 3095 3094 3096 3096 3096 3096 3096 3096 3096 3095 3095
3012 3012 3014 3015 3016 3018 3019 3021 3023 3024 3025 3027 3028 3030 3032 3032 3032 3032 3033 3034 3034 3035 3035 3036 3036 3037 3037 3037 3037 3038 3039 3040 3042 3044 3044 3045 3046 3047 3048 3049 3049 3049 3050 3051 3052 3053 3055 3058 3059 3061 3063 3064 3064 3065 3067 3069 3071 3071 3072 3071 3071 3072 3073 3073 3074 3075 3077 3080 3080 3082 3088 3092 3093 3095 3096 3095 3095 3094 3094 3095 3096 3095 3095 3095 3095 3095 3095 3095
3012 3013 3014 3015 3016 3017 3019 3020 3023 3024 3025 3027 3029 3030 3031 3032 3031 3032 3033 3034 3035 3035 3035 3036 3037 3037 3037 3038 3038 3039 3040 3042 3043 3043 3044 3045 3046 3047 3049 3049 3049 3048 3049 3050 3051 3053 3055 3057 3058 3060 3062 3064 3064 3065 3066 3067 3067 3068 3069 3069 3069 3070 3070 3072 3073 3074 3077 3079 3078 3081 3087 3091 3093 3094 3094 3094 3094 3093 3094 3095 3095 3095 3094 3094 3094 3094 3094 3095
3012 3013 3014 3015 3016 3018 3019 3020 3022 3024 3025 3027 3028 3029 3030 3031 3031 3031 3032 3033 3034 3035 3035 3036 3037 3037 3038 3038 3039 3040 3041 3043 3044 3044 3044 3046 3047 3049 3049 3049 3049 3049 3050 3050 3050 3053 3055 3057 3057 3058 3060 3063 3066 3067 3067 3067 3066 3067 3069 3069 3070 3069 3069 3072 3074 3075 3077 3079 3079 3081 3086 3090 3092 3094 3093 3093 3093 3094 3094 3095 3095 3095 3094 3093 3094 3094 3095 3095
3011 3012 3014 3015 3016 3018 3020 3021 3022 3024 3025 3027 3028 3029 3029 3031 3031 3032 3032 3032 3033 3034 3035 3036 3036 3037 3038 3038 3039 3040 3041 3043 3044 3045 3045 3045 3047 3048 3049 3049 3049 3050 3051 3051 3050 3052 3055 3057 3057 3057 3059 3062 3065 3068 3069 3068 3066 3068 3069 3069 3069 3070 3070 3071 3075 3077 3078 3079 3081 3083 3085 3088 3091 3092 3092 3092 3093 3094 3095 3095 3094 3095 3094 3093 3094 3094 3095 3095
3011 3012 3013 3015 3017 3019 3020 3021 3022 3024 3025 3026 3027 3028 3029 3030 3031 3032 3032 3033 3033 3034 3035 3036 3036 3038 3039 3039 3040 3041 3042 3043 3044 3045 3045 3045 3045 3046 3048 3049 3049 3049 3051 3051 3051 3053 3055 3058 3058 3058 3060 3062 3064 3067 3068 3067 3067 3068 3070 3069 3069 3069 3070 3072 3074 3077 3079 3079 3082 3085 3085 3086 3089 3090 3091 3091 3091 3092 3094 3094 3094 3094 3094 3093 3093 3094 3095 3095
3010 3012 3013 3015 3017 3019 3020 3021 3022 3023 3024 3026 3027 3028 3029 3030 3031 3032 3032 3033 3034 3034 3035 3036 3037 3038 3039 3040 3041 3042 3042 3043 3044 3044 3044 3045 3045 3045 3047 3048 3048 3049 3050 3051 3052 3054 3056 3058 3059 3059 3060 3063 3064 3066 3067 3067 3067 3068 3069 3070 3070 3070 3071 3073 3074 3077 3078 3078 3082 3085 3085 3084 3086 3088 3089 3089 3090 3091 3093 3093 3093 3094 3093 3093 3093 3093 3094 3094
3010 3011 3013 3015 3017 3018 3020 3022 3023 3023 3024 3026 3027 3027 3028 3029 3030 3031 3031 3032 3033 3034 3035 3036 3037 3038 3040 3040 3041 3041 3042 3043 3043 3043 3044 3045 3045 3046 3046 3047 3048 3049 3049 3051 3052 3053 3055 3057 3059 3059 3060 3062 3064 3065 3065 3065 3066 3067 3069 3070 3071 3072 3072 3073 3074 3076 3077 3078 3080 3082 3082 3082 3084 3085 3087 3088 3089 3090 3092 3092 3092 3092 3093 3092 3092 3092 3093 3093
3010 3011 3013 3015 3016 3017 3019 3021 3023 3024 3024 3025 3026 3027 3027 3028 3029 3030 3031 3032 3033 3034 3035 3035 3037 3038 3039 3039 3039 3039 3040 3041 3042 3043 3044 3044 3045 3046 3047 3047 3048 3048 3048 3050 3051 3052 3054 3056 3058 3059 3060 3062 3064 3064 3064 3065 3066 3068 3070 3071 3072 3073 3073 3073 3074 3076 3077 3079 3080 3081 3082 3082 3083 3084 3086 3088 3089 3090 3090 3091 3091 3091 3092 3091 3091 3092 3092 3092
3010 3012 3014 3015 3016 3017 3019 3021 3023 3024 3024 3025 3026 3027 3028 3029 3030 3030 3031 3032 3032 3033 3034 3034 3035 3035 3035 3036 3037 3037 3039 3040 3040 3042 3043 3044 3044 3046 3047 3048 3048 3048 3049 3050 3051 3052 3054 3056 3057 3058 3059 3063 3065 3065 3065 3065 3066 3068 3070 3071 3072 3074 3074 3074 3075 3076 3077 3079 3080 3081 3082 3081 3082 3084 3085 3087 3088 3089 3089 3090 3090 3091 3091 3091 3091 3091 3091 3091
3010 3011 3013 3014 3016 3018 3020 3022 3023 3024 3024 3025 3026 3027 3028 3029 3030 3030 3031 3031 3032 3033 3033 3033 3034 3034 3034 3035 3036 3036 3037 3038 3040 3041 3043 3044 3045 3045 3046 3048 3048 3049 3050 3050 3051 3053 3054 3056 3057 3058 3059 3062 3064 3064 3064 3065 3066 3069 3071 3071 3072 3074 3074 3075 3076 3077 3078 3079 3079 3080 3080 3080 3082 3083 3085 3086 3087 3088 3088 3089 3090 3090 3090 3090 3091 3091 3091 3091